TimeCST,TemperatureF,Dew PointF,Humidity,Sea Level PressureIn,VisibilityMPH,Wind Direction,Wind SpeedMPH,Gust SpeedMPH,PrecipitationIn,Events,Conditions,WindDirDegrees,DateUTC
12:55 AM,16.3,12.0,83,29.98,10.0,South,9.2,-,N/A,,Clear,190,2013-02-26 06:55:00
1:55 AM,14.2,10.2,84,29.99,10.0,South,11.5,-,N/A,,Clear,170,2013-02-26 07:55:00
2:55 AM,12.4,8.4,84,30.00,10.0,South,13.8,-,N/A,,Clear,190,2013-02-26 08:55:00
3:55 AM,10.9,7.5,86,30.00,10.0,South,15.0,-,N/A,,Clear,190,2013-02-26 09:55:00
4:55 AM,10.6,6.8,85,30.01,10.0,SSW,10.4,-,N/A,,Clear,200,2013-02-26 10:55:00
5:55 AM,9.5,5.9,85,30.03,10.0,South,10.4,-,N/A,,Clear,190,2013-02-26 11:55:00
6:55 AM,9.1,5.9,87,30.03,10.0,South,13.8,-,N/A,,Clear,190,2013-02-26 12:55:00
7:20 AM,8.6,5.0,85,30.02,10.0,South,12.7,-,N/A,,Partly Cloudy,170,2013-02-26 13:20:00
7:32 AM,8.6,5.0,85,30.02,7.0,South,12.7,-,N/A,,Mostly Cloudy,180,2013-02-26 13:32:00
7:47 AM,8.6,5.0,85,30.02,7.0,South,8.1,-,N/A,,Scattered Clouds,180,2013-02-26 13:47:00
7:55 AM,7.9,4.5,86,30.02,7.0,South,8.1,-,N/A,,Scattered Clouds,170,2013-02-26 13:55:00
8:18 AM,8.6,5.0,85,30.03,9.0,South,8.1,-,N/A,,Partly Cloudy,170,2013-02-26 14:18:00
8:28 AM,8.6,6.8,92,30.04,6.0,South,11.5,-,N/A,,Mostly Cloudy,170,2013-02-26 14:28:00
8:51 AM,10.4,8.6,92,30.04,9.0,South,11.5,-,N/A,,Scattered Clouds,170,2013-02-26 14:51:00
9:12 AM,12.2,8.6,85,30.04,9.0,SSE,9.2,-,N/A,,Partly Cloudy,160,2013-02-26 15:12:00
9:55 AM,13.5,10.2,87,30.04,9.0,South,6.9,-,N/A,,Partly Cloudy,180,2013-02-26 15:55:00
10:55 AM,17.1,12.4,82,30.05,10.0,SSE,8.1,-,N/A,,Clear,160,2013-02-26 16:55:00
11:55 AM,19.0,13.8,80,30.06,10.0,South,9.2,-,N/A,,Clear,170,2013-02-26 17:55:00
12:55 PM,21.6,16.2,80,30.07,10.0,South,9.2,-,N/A,,Clear,180,2013-02-26 18:55:00
1:55 PM,23.9,18.1,79,30.05,10.0,South,8.1,-,N/A,,Clear,170,2013-02-26 19:55:00
2:55 PM,24.3,18.5,79,30.06,10.0,South,5.8,-,N/A,,Clear,170,2013-02-26 20:55:00
3:55 PM,24.4,18.5,78,30.07,10.0,SSE,6.9,-,N/A,,Clear,150,2013-02-26 21:55:00
4:55 PM,23.9,18.3,79,30.07,10.0,ESE,5.8,-,N/A,,Clear,120,2013-02-26 22:55:00
5:55 PM,20.5,16.7,85,30.08,10.0,SE,4.6,-,N/A,,Clear,140,2013-02-26 23:55:00
6:55 PM,18.9,15.1,85,30.09,10.0,SE,5.8,-,N/A,,Clear,140,2013-02-27 00:55:00
7:55 PM,17.2,13.5,85,30.10,10.0,Calm,Calm,-,N/A,,Clear,0,2013-02-27 01:55:00
8:55 PM,15.4,12.0,86,30.11,10.0,Calm,Calm,-,N/A,,Clear,0,2013-02-27 02:55:00
9:55 PM,12.7,9.9,88,30.11,9.0,Calm,Calm,-,N/A,,Clear,0,2013-02-27 03:55:00
10:18 PM,10.4,6.8,85,30.11,9.0,Calm,Calm,-,N/A,,Clear,0,2013-02-27 04:18:00
10:40 PM,12.2,8.6,85,30.11,9.0,Calm,Calm,-,N/A,,Clear,0,2013-02-27 04:40:00
10:55 PM,12.2,9.1,88,30.12,5.0,Calm,Calm,-,N/A,,Clear,0,2013-02-27 04:55:00
10:57 PM,12.2,8.6,85,30.12,5.0,Calm,Calm,-,N/A,,Clear,0,2013-02-27 04:57:00
11:15 PM,10.4,6.8,85,30.12,9.0,North,6.9,-,N/A,Snow,Light Snow,350,2013-02-27 05:15:00
11:19 PM,10.4,6.8,85,30.12,9.0,North,6.9,-,N/A,,Clear,350,2013-02-27 05:19:00
11:20 PM,10.4,6.8,85,30.12,9.0,NNW,5.8,-,N/A,,Clear,340,2013-02-27 05:20:00
11:55 PM,10.2,6.8,86,30.12,8.0,NNW,4.6,-,0.00,,Clear,330,2013-02-27 05:55:00